Regional Weather Roundup
Issued by NWS

Home | Current Version | Previous Version | Text Only | Print | Product List | Glossary On
Versions: 1 2 3 4 5 6 7 8 9 10 11 12 13 14 15 16 17 18 19 20 21 22 23 24 25 26 27 28 29 30 31 32 33 34 35 36 37 38 39 40 41 42 43 44 45 46 47 48 49 50
000
ASUS45 KABQ 281701
RWRNM
NEW MEXICO REGIONAL WEATHER ROUNDUP
NATIONAL WEATHER SERVICE ALBUQUERQUE NM
1100 AM MDT TUE MAR 28 2017

NOTE: "FAIR" MEANS FEW OR NO CLOUDS BELOW 12,000 FEET AGL WITH NO
       SIGNIFICANT WEATHER OR OBSTRUCTIONS TO VISION.

      THIS PRODUCT IS RELEASED AS TWO VERSIONS.  ONE VERSION NEAR
      THE TOP OF THE HOUR CONTAINING PRELIMINARY DATA FROM ALBUQUERQUE
      AND OTHER STATIONS.  A FINAL VERSION WITH ADDITIONAL DATA IS
      ISSUED ABOUT 10 MINUTES AFTER THE HOUR.

NMZ501-503-504-510>518-281800-
NORTHWEST PLATEAU/NORTHCENTRAL MOUNTAINS

CITY           SKY/WX    TMP DP  RH WIND       PRES   REMARKS
FARMINGTON     CLOUDY    44  37  76 W13       29.85F
LOS ALAMOS     DRIZZLE   40  34  81 SE3       29.86S
SANTA FE       RAIN      39  39 100 W5        29.86R FOG
TAOS             N/A     45  30  57 NW3       29.83S
ANGEL FIRE     PTSUNNY   43  32  66 NE7       29.85F

$$
NMZ402-403-502-505>509-281800-
WESTCENTRAL MOUNTAINS/SOUTHWEST MOUNTAINS

CITY           SKY/WX    TMP DP  RH WIND       PRES   REMARKS
GALLUP         FAIR      44  32  62 VRB3      29.88R
GRANTS         PTSUNNY   46  30  54 NW7       29.86F
SILVER CITY    CLOUDY    45  34  65 NW15      29.88R

$$
NMZ407-409-411-412-281800-
SOUTHERN DESERTS

CITY           SKY/WX    TMP DP  RH WIND       PRES   REMARKS
DEMING         FAIR      52  35  52 W22G30    29.86F
LAS CRUCES     FAIR      58  32  37 W24G33    29.85R
HOLLOMAN AFB   FAIR      64  24  21 SW21G26   29.82F
ALAMOGORDO     FAIR      63  30  29 S12       29.81F
T OR C         CLOUDY    47  37  68 E5        29.81R

$$
NMZ519>523-281800-
CENTRAL VALLEYS/CENTRAL HIGHLANDS

CITY           SKY/WX    TMP DP  RH WIND       PRES   REMARKS
ALBUQUERQUE    FAIR      50  36  58 N3        29.82S
DOUBLE EAGLE   MOSUNNY   46  39  76 N5        29.84S
MORIARTY ARPT  FAIR      44  42  93 N18       29.85F
CLINES CORNERS CLOUDY    40  37  89 W14       29.86R WCI  32
BELEN          FAIR      49  38  64 CALM      29.82S
SOCORRO        FAIR      55  37  49 N8        29.80F

$$
NMZ524>526-539-540-281800-
SOUTHCENTRAL MOUNTAINS

CITY           SKY/WX    TMP DP  RH WIND       PRES   REMARKS
RUIDOSO        NOT AVBL

$$
NMZ527>531-281800-
NORTHEAST HIGHLANDS/NORTHEAST PLAINS

CITY           SKY/WX    TMP DP  RH WIND       PRES   REMARKS
LAS VEGAS      CLOUDY    46  37  71 S9        29.83S
RATON          PTSUNNY   47  36  65 W8        29.83R
CLAYTON        LGT RAIN  48  46  93 NW6       29.84F

$$
NMZ532>537-281800-
EASTCENTRAL PLAINS

CITY           SKY/WX    TMP DP  RH WIND       PRES   REMARKS
TUCUMCARI      FAIR      53  48  83 NE16      29.76F
CANNON AFB     CLOUDY    57  47  71 N14       29.77F
CLOVIS AIRPORT CLOUDY    57  43  58 NW10      29.80F

$$
NMZ028-029-538-281800-
SOUTHEAST PLAINS

CITY           SKY/WX    TMP DP  RH WIND       PRES   REMARKS
ROSWELL        FAIR      69  37  30 E8        29.76F
ARTESIA        FAIR      70  37  30 NE9       29.74F
CARLSBAD       FAIR      76  29  17 W20G28    29.72F
HOBBS          SUNNY     72  41  33 W10       29.76S


$$




USA.gov is the U.S. government's official web portal to all federal, state and local government web resources and services.